Regional Weather Roundup
Issued by NWS Mobile, AL

Home | Current Version | Previous Version | Text Only | Print | Product List | Glossary On
Versions: 1 2 3 4 5 6 7 8 9 10 11 12 13 14 15 16 17 18 19 20 21 22 23 24 25 26 27 28 29 30 31 32 33 34 35 36 37 38 39 40 41 42 43 44 45 46 47 48 49 50
000
ASUS44 KMOB 311210
RWRMOB
REGIONAL WEATHER ROUNDUP
NATIONAL WEATHER SERVICE MOBILE AL
700 AM CDT THU JUL 31 2014

NOTE: "FAIR" INDICATES FEW OR NO CLOUDS BELOW 12,000 FEET WITH NO
      SIGNIFICANT WEATHER AND/OR OBSTRUCTIONS TO VISIBILITY.

  * THESE STATIONS ARE PART OF THE UNIVERSITY OF SOUTH ALABAMA
    MESONET AND ARE NOT UNDER NWS OR FAA QUALITY CONTROL.

ALZ061>064-311300-
COASTAL ALABAMA

CITY           SKY/WX    TMP DP  RH WIND       PRES   REMARKS
MOBILE REG APT MOCLDY    66  61  84 CALM      30.03R
6HR MIN TEMP:  63; 6HR MAX TEMP:  66;

BROOKLEY FIELD CLEAR     67  62  84 NW3       30.03R
6HR MIN TEMP:  65; 6HR MAX TEMP:  69;

USA CAMPUS*    NOT AVBL
DOG RIVER*     NOT AVBL


CITY           SKY/WX    TMP DP  RH WIND       PRES   REMARKS
MOUNT VERNON*  NOT AVBL
SARALAND*      NOT AVBL
BAY MINETTE*   NOT AVBL
LOXLEY*        NOT AVBL
ROBERTSDALE*   NOT AVBL
FAIRHOPE*      NOT AVBL
ELBERTA*       NOT AVBL
FOLEY*         NOT AVBL
GRAND BAY*     NOT AVBL
DAUPHIN ISLND* NOT AVBL
BON SCOUR NWR* NOT AVBL
GULF SHORES    CLEAR     63  60  90 CALM      30.02R

$$

ALZ051>060-311300-
INTERIOR SOUTHWEST AND SOUTH CENTRAL ALABAMA

CITY           SKY/WX    TMP DP  RH WIND       PRES   REMARKS
GREENVILLE     SUNNY     64  59  83 CALM      30.02S
6HR MIN TEMP:  60; 6HR MAX TEMP:  64;

EVERGREEN      SUNNY     62  59  90 CALM      30.03R
6HR MIN TEMP:  60; 6HR MAX TEMP:  65;

CASTLEBERRY*   NOT AVBL
ATMORE*        NOT AVBL
DIXIE*         NOT AVBL
ANDALUSIA/OPP  MOSUNNY   67  61  81 CALM      30.02R
6HR MIN TEMP:  65; 6HR MAX TEMP:  67;

ANDALUSIA*     NOT AVBL
FLORALA APT    MOSUNNY   64  60  87 CALM      30.03S
6HR MIN TEMP:  59; 6HR MAX TEMP:  64;

FLORALA*       NOT AVBL

$$

FLZ001>006-311300-
WESTERN FLORIDA PANHANDLE

CITY           SKY/WX    TMP DP  RH WIND       PRES   REMARKS
PENSACOLA      SUNNY     65  61  87 N3        30.00S
6HR MIN TEMP:  63; 6HR MAX TEMP:  68;

NAS PENSACOLA  MOCLDY    65  61  87 CALM      30.01R
6HR MIN TEMP:  62; 6HR MAX TEMP:  66;

MILTON         MOSUNNY   63  59  87 N3        30.02R
6HR MIN TEMP:  60; 6HR MAX TEMP:  65;

WHTNG S FIELD  SUNNY     62  58  86 N3        30.02R
6HR MIN TEMP:  60; 6HR MAX TEMP:  64;



CITY           SKY/WX    TMP DP  RH WIND       PRES   REMARKS
WALNUT HILL*   NOT AVBL
JAY*           NOT AVBL
DUKE FIELD     SUNNY     61  60  99 N2        30.02R
CRESTVIEW      MOSUNNY   61  59  93 CALM      30.03R
6HR MIN TEMP:  57; 6HR MAX TEMP:  61;

VALPARAISO     MOSUNNY   66  59  78 N2        30.00S
6HR MIN TEMP:  64; 6HR MAX TEMP:  68;

DESTIN         SUNNY     73  64  73 CALM      30.01R
6HR MIN TEMP:  71; 6HR MAX TEMP:  76;


$$

MSZ076-079-311300-
INTERIOR SOUTHEAST MISSISSIPPI

CITY           SKY/WX    TMP DP  RH WIND       PRES   REMARKS
LEAKESVILLE*   NOT AVBL
AGRICOLA*      NOT AVBL

$$

MARINE OBSERVATIONS

STATION/POSITION TIME  TEMP    WIND        PRES    WAVE
                       AIR SEA DIR/SP/G            HT/PER
                 (UTC) (F)     (DEG/KT/KT) (MB)    (FT/S)
PASCAGOULA       1200   72      10/  8/  9 1016.0S
GRAND BAY        1100   68      10/  4     1017.0S
KATRINA CUT      1100   76      30/ 10     1016.6S
CEDAR POINT      1100   70     360/  7     1016.3R
E DAUPHIN ISLAND 1100   78      10/  8/  9 1016.0R
MIDDLE BAY LIGHT 1100   76      10/ 10     1015.9R
USCG MOBILE BAY  1200   69 83  350/  4/  5 1015.3F
STATE DOCKS      1200   71 82              1016.1F
MEAHER PARK      1100   68     360/  4     1016.6R
WEEKS BAY        1100   60                   N/A
12 S ORANGE BCH  1200   77 83   20/ 10/ 12 1016.0R   1
PENSACOLA BAY    1200   72 85   10/  4/  5 1016.3S
64 S DAUPHIN ISL 1133   82 85   10/  4/  6 1015.7R
67 S FORT MORGAN 1100   79                 1015.6R

$$

SELECTED LOCATIONS ACROSS THE REGION

CITY           SKY/WX    TMP DP  RH WIND       PRES   REMARKS
NEW ORLEANS    MOCLDY    73  65  75 CALM      30.01R HAZE
GULFPORT       PTCLDY    73  61  65 N5        30.02R
PASCAGOULA AP  CLEAR     64  62  93 CALM      30.02R
PASCAGOULA*    NOT AVBL
HATTIESBURG    MOCLDY    68  64  87 CALM      30.05R
LAUREL         MOCLDY    64  61  88 CALM      30.05S
MERIDIAN       CLOUDY    68  61  78 CALM      30.05R
JACKSON        CLOUDY    71  63  75 CALM      30.07R
MONTGOMERY     MOSUNNY   67  63  87 CALM      30.03R
TROY           SUNNY     61  59  93 CALM      30.03R
KINSTON*       NOT AVBL
GENEVA*        NOT AVBL
ASHFORD*       NOT AVBL
DOTHAN         MOSUNNY   66  62  87 CALM      30.05R
PANAMA CITY    SUNNY     66  62  87 CALM      29.99S

$$



USA.gov is the U.S. government's official web portal to all federal, state and local government web resources and services.